DW1934 Weather Reports


Display with metric or nautical units.
time (UTC)temp
F
wind
direction
speed
MPH
gust
MPH
rain 1hr
in
rain 24hr
in
rain mn
in
humidity
%
barometer
mb
20180526195007 89 0.0 0.0 0.00 0.00 0.00 48 1010.2
20180526194006 88 0.0 0.0 0.00 0.00 0.00 53 1010.2
20180526192931 88 0.0 0.0 0.00 0.00 0.00 54 1010.2
20180526191820 88 0.0 0.0 0.00 0.00 0.00 54 1010.2
20180526190817 88 0.0 0.0 0.00 0.00 0.00 53 1010.5
20180526185812 88 0.0 0.0 0.00 0.00 0.00 55 1010.5
20180526184812 87 0.0 0.0 0.00 0.00 0.00 57 1010.5
20180526183738 87 0.0 0.0 0.00 0.00 0.00 57 1010.5
20180526182737 87 0.0 0.0 0.00 0.00 0.00 58 1010.8
20180526181735 87 0.0 0.0 0.00 0.00 0.00 57 1010.8
20180526180734 86 0.0 0.0 0.00 0.00 0.00 57 1010.8
20180526175732 86 0.0 0.0 0.00 0.00 0.00 58 1010.8
20180526174731 86 0.0 0.0 0.00 0.00 0.00 59 1010.8
20180526173625 86 0.0 0.0 0.00 0.00 0.00 59 1011.2
20180526172624 86 0.0 0.0 0.00 0.00 0.00 59 1011.2
20180526171623 86 0.0 0.0 0.00 0.00 0.00 60 1011.5
20180526170622 85 0.0 0.0 0.00 0.00 0.00 60 1011.5
20180526165621 84 0.0 0.0 0.00 0.00 0.00 64 1011.5
20180526164620 84 0.0 0.0 0.00 0.00 0.00 62 1011.5
20180526163619 84 0.0 0.0 0.00 0.00 0.00 63 1011.9
20180526162618 83 0.0 0.0 0.00 0.00 0.00 63 1011.9
20180526161439 83 0.0 0.0 0.00 0.00 0.00 65 1011.9
20180526160229 83 0.0 0.0 0.00 0.00 0.00 63 1011.9
20180526155227 82 0.0 0.0 0.00 0.00 0.00 64 1011.9
20180526154227 82 0.0 0.0 0.00 0.00 0.00 64 1011.9
20180526153226 81 0.0 0.0 0.00 0.00 0.00 66 1011.9
20180526152048 80 0.0 0.0 0.00 0.00 0.00 66 1011.9
20180526151014 79 0.0 0.0 0.00 0.00 0.00 67 1011.9
20180526145908 79 0.0 0.0 0.00 0.00 0.00 69 1011.9
20180526144729 78 0.0 0.0 0.00 0.00 0.00 70 1011.9
20180526143656 78 0.0 0.0 0.00 0.00 0.00 70 1011.9
20180526142655 78 0.0 0.0 0.00 0.00 0.00 70 1011.5
20180526141654 77 0.0 0.0 0.00 0.00 0.00 71 1011.5
20180526140620 77 0.0 0.0 0.00 0.00 0.00 72 1011.5
20180526135337 76 0.0 0.0 0.00 0.00 0.00 74 1011.2
20180526134336 75 0.0 0.0 0.00 0.00 0.00 75 1011.2
20180526133335 75 0.0 0.0 0.00 0.00 0.00 76 1011.2
20180526132302 73 0.0 0.0 0.00 0.00 0.00 79 1011.2
20180526131156 73 0.0 0.0 0.00 0.00 0.00 79 1011.2
20180526130155 72 0.0 0.0 0.00 0.00 0.00 81 1011.2
20180526125121 70 0.0 0.0 0.00 0.00 0.00 82 1011.2
20180526123911 67 0.0 0.0 0.00 0.00 0.00 84 1011.2
20180526122910 66 0.0 0.0 0.00 0.00 0.00 85 1010.8
20180526121909 65 0.0 0.0 0.00 0.00 0.00 85 1010.8
20180526120803 64 0.0 0.0 0.00 0.00 0.00 85 1010.8
20180526115730 63 0.0 0.0 0.00 0.00 0.00 86 1010.8
20180526114624 62 0.0 0.0 0.00 0.00 0.00 86 1010.8
20180526113518 62 0.0 0.0 0.00 0.00 0.00 85 1010.8
20180526112412 62 0.0 0.0 0.00 0.00 0.00 85 1010.5
20180526111410 62 0.0 0.0 0.00 0.00 0.00 85 1010.5
20180526110409 62 0.0 0.0 0.00 0.00 0.00 85 1010.2
20180526105408 62 0.0 0.0 0.00 0.00 0.00 84 1010.2
20180526104335 62 0.0 0.0 0.00 0.00 0.00 84 1010.2
20180526103302 63 0.0 0.0 0.00 0.00 0.00 84 1010.2
20180526102156 63 0.0 0.0 0.00 0.00 0.00 84 1010.2
20180526101155 63 0.0 0.0 0.00 0.00 0.00 84 1009.8
20180526100154 63 0.0 0.0 0.00 0.00 0.00 84 1009.8
20180526095153 63 0.0 0.0 0.00 0.00 0.00 84 1009.8
20180526094120 63 0.0 0.0 0.00 0.00 0.00 84 1009.8
20180526093119 63 0.0 0.0 0.00 0.00 0.00 84 1009.8
20180526092045 63 0.0 0.0 0.00 0.00 0.00 84 1009.8
20180526091044 64 0.0 0.0 0.00 0.00 0.00 84 1009.8
20180526085906 64 0.0 0.0 0.00 0.00 0.00 84 1009.8
20180526084833 64 0.0 0.0 0.00 0.00 0.00 84 1009.8
20180526083832 64 0.0 0.0 0.00 0.00 0.00 85 1010.2
20180526082831 64 0.0 0.0 0.00 0.00 0.00 84 1009.8
20180526081725 64 0.0 0.0 0.00 0.00 0.00 84 1009.8
20180526080724 65 0.0 0.0 0.00 0.00 0.00 83 1009.8
20180526075619 65 0.0 0.0 0.00 0.00 0.00 85 1009.8
20180526074618 65 0.0 0.0 0.00 0.00 0.00 85 1010.2
20180526073407 65 0.0 0.0 0.00 0.00 0.00 84 1010.2
20180526072301 65 0.0 0.0 0.00 0.00 0.00 84 1010.2
20180526071155 65 0.0 0.0 0.00 0.00 0.00 84 1010.2
20180526070154 65 0.0 0.0 0.00 0.00 0.00 84 1010.2
20180526065154 66 0.0 0.0 0.00 0.00 0.00 84 1010.5
20180526064120 66 0.0 0.0 0.00 0.00 0.00 84 1010.5
20180526063047 65 0.0 0.0 0.00 0.00 0.00 84 1010.5
20180526062046 66 0.0 0.0 0.00 0.00 0.00 84 1010.8
20180526061044 66 0.0 0.0 0.00 0.00 0.00 83 1010.8
20180526060011 66 0.0 0.0 0.00 0.00 0.00 82 1010.8
20180526055010 67 0.0 0.0 0.00 0.00 0.00 82 1010.8
20180526054009 67 0.0 0.0 0.00 0.00 0.00 82 1010.8
20180526052936 67 0.0 0.0 0.00 0.00 0.00 81 1010.8
20180526051935 67 0.0 0.0 0.00 0.00 0.00 81 1011.2
20180526050830 68 0.0 0.0 0.00 0.00 0.00 81 1010.8
20180526045829 68 0.0 0.0 0.00 0.00 0.00 81 1010.8
20180526044828 68 0.0 0.0 0.00 0.00 0.00 81 1010.8
20180526043754 68 0.0 0.0 0.00 0.00 0.00 80 1010.8
20180526042753 69 0.0 0.0 0.00 0.00 0.00 79 1010.8
20180526041436 69 0.0 0.0 0.00 0.00 0.00 78 1010.5
20180526040435 70 0.0 0.0 0.00 0.00 0.00 78 1010.8
20180526035402 70 0.0 0.0 0.00 0.00 0.00 77 1010.8
20180526034401 71 0.0 0.0 0.00 0.00 0.00 77 1010.8
20180526033359 71 0.0 0.0 0.00 0.00 0.00 76 1010.8
20180526032254 72 0.0 0.0 0.00 0.00 0.00 75 1010.8
20180526031252 72 0.0 0.0 0.00 0.00 0.00 75 1010.5
20180526030251 73 0.0 0.0 0.00 0.00 0.00 75 1010.5
20180526025250 74 0.0 0.0 0.00 0.00 0.00 73 1010.2
20180526024216 75 0.0 0.0 0.00 0.00 0.00 73 1010.2
20180526023215 76 0.0 0.0 0.00 0.00 0.00 71 1010.2
20180526022214 76 0.0 0.0 0.00 0.00 0.00 70 1010.5
20180526021035 77 0.0 0.0 0.00 0.00 0.00 70 1010.2
20180526020034 77 0.0 0.0 0.00 0.00 0.00 69 1010.2
20180526014928 78 0.0 0.0 0.00 0.00 0.00 68 1010.2
20180526013749 79 0.0 0.0 0.00 0.00 0.00 67 1010.2
20180526012749 80 0.0 0.0 0.00 0.00 0.00 66 1009.8
20180526011610 80 0.0 0.0 0.00 0.00 0.00 66 1009.8
20180526010609 81 0.0 0.0 0.00 0.00 0.00 65 1009.8
20180526005607 81 0.0 0.0 0.00 0.00 0.00 64 1009.8
20180526004605 81 0.0 0.0 0.00 0.00 0.00 64 1009.5
20180526003529 82 0.0 0.0 0.00 0.00 0.00 64 1009.5
20180526002455 82 0.0 0.0 0.00 0.00 0.00 63 1009.1
20180526001454 83 0.0 0.0 0.00 0.00 0.00 63 1009.1
20180526000421 84 0.0 0.0 0.00 0.00 0.00 61 1009.1
20180525235105 84 0.0 0.0 0.00 0.00 0.00 61 1009.1
20180525234104 85 0.0 0.0 0.00 0.00 0.00 60 1009.1
20180525232958 85 0.0 0.0 0.00 0.00 0.00 59 1009.1
20180525231957 86 0.0 0.0 0.00 0.00 0.00 57 1009.5
20180525230956 87 0.0 0.0 0.00 0.00 0.00 57 1009.5
20180525225955 87 0.0 0.0 0.00 0.00 0.00 56 1009.5
20180525224954 88 0.0 0.0 0.00 0.00 0.00 55 1009.8
20180525223848 88 0.0 0.0 0.00 0.00 0.00 56 1009.8
20180525222847 88 0.0 0.0 0.00 0.00 0.00 57 1010.2
20180525221814 88 0.0 0.0 0.00 0.00 0.00 58 1009.8
20180525220813 87 0.0 0.0 0.00 0.00 0.00 60 1009.8
20180525215739 87 0.0 0.0 0.00 0.01 0.00 60 1010.2
20180525214739 87 0.0 0.0 0.00 0.01 0.00 62 1010.2
20180525213737 87 0.0 0.0 0.00 0.01 0.00 61 1010.2
20180525212631 87 0.0 0.0 0.00 0.01 0.00 60 1010.2
20180525211630 87 0.0 0.0 0.00 0.01 0.00 59 1010.2
20180525210630 87 0.0 0.0 0.00 0.01 0.00 59 1010.5
20180525205628 87 0.0 0.0 0.00 0.01 0.00 59 1010.5
20180525204627 88 0.0 0.0 0.00 0.01 0.00 58 1010.5
20180525203554 88 0.0 0.0 0.00 0.01 0.00 59 1010.5
20180525202520 88 0.0 0.0 0.00 0.01 0.00 58 1010.8
20180525201519 88 0.0 0.0 0.00 0.01 0.00 57 1010.8
20180525200519 87 0.0 0.0 0.00 0.01 0.00 59 1010.8
20180525195445 87 0.0 0.0 0.00 0.01 0.00 58 1010.8